Year,Month,Day,Hour,Minute,Value (Times are PST for temperature in C)
2007,04,20,00,00,6.20
2007,04,20,00,01,6.20
2007,04,20,00,02,6.20
2007,04,20,00,03,6.20
2007,04,20,00,04,6.20
2007,04,20,00,05,6.20
2007,04,20,00,06,6.20
2007,04,20,00,07,6.20
2007,04,20,00,08,6.20
2007,04,20,00,09,6.20
2007,04,20,00,10,6.20
2007,04,20,00,11,6.20
2007,04,20,00,12,6.20
2007,04,20,00,13,6.30
2007,04,20,00,14,6.30
2007,04,20,00,15,6.30
2007,04,20,00,16,6.30
2007,04,20,00,17,6.30
2007,04,20,00,18,6.30
2007,04,20,00,19,6.40
2007,04,20,00,20,6.40
2007,04,20,00,21,6.40
2007,04,20,00,22,6.40
2007,04,20,00,23,6.40
2007,04,20,00,24,6.30
2007,04,20,00,25,6.30
2007,04,20,00,26,6.20
2007,04,20,00,27,6.20
2007,04,20,00,28,6.20
2007,04,20,00,29,6.10
2007,04,20,00,30,6.00
2007,04,20,00,31,6.00
2007,04,20,00,32,6.00
2007,04,20,00,33,5.90
2007,04,20,00,34,5.90
2007,04,20,00,35,5.90
2007,04,20,00,36,5.80
2007,04,20,00,37,5.70
2007,04,20,00,38,5.70
2007,04,20,00,39,5.70
2007,04,20,00,40,5.70
2007,04,20,00,41,5.70
2007,04,20,00,42,5.60
2007,04,20,00,43,5.60
2007,04,20,00,44,5.60
2007,04,20,00,45,5.60
2007,04,20,00,46,5.60
2007,04,20,00,47,5.60
2007,04,20,00,48,5.70
2007,04,20,00,49,5.70
2007,04,20,00,50,5.70
2007,04,20,00,51,5.70
2007,04,20,00,52,5.70
2007,04,20,00,53,5.70
2007,04,20,00,54,5.70
2007,04,20,00,55,5.80
2007,04,20,00,56,5.90
2007,04,20,00,57,5.90
2007,04,20,00,58,6.00
2007,04,20,00,59,6.00
2007,04,20,01,00,6.00
2007,04,20,01,01,6.10
2007,04,20,01,02,6.10
2007,04,20,01,03,6.10
2007,04,20,01,04,6.10
2007,04,20,01,05,6.10
2007,04,20,01,06,6.10
2007,04,20,01,07,6.10
2007,04,20,01,08,6.10
2007,04,20,01,09,6.20
2007,04,20,01,10,6.20
2007,04,20,01,11,6.20
2007,04,20,01,12,6.10
2007,04,20,01,13,6.10
2007,04,20,01,14,6.10
2007,04,20,01,15,6.10
2007,04,20,01,16,6.10
2007,04,20,01,17,6.10
2007,04,20,01,18,6.00
2007,04,20,01,19,6.00
2007,04,20,01,20,5.90
2007,04,20,01,21,5.90
2007,04,20,01,22,5.80
2007,04,20,01,23,5.70
2007,04,20,01,24,5.70
2007,04,20,01,25,5.60
2007,04,20,01,26,5.60
2007,04,20,01,27,5.50
2007,04,20,01,28,5.40
2007,04,20,01,29,5.30
2007,04,20,01,30,5.30
2007,04,20,01,31,5.20
2007,04,20,01,32,5.10
2007,04,20,01,33,5.00
2007,04,20,01,34,4.90
2007,04,20,01,35,4.90
2007,04,20,01,36,4.80
2007,04,20,01,37,4.80
2007,04,20,01,38,4.80
2007,04,20,01,39,4.70
2007,04,20,01,40,4.70
2007,04,20,01,41,4.60
2007,04,20,01,42,4.60
2007,04,20,01,43,4.60
2007,04,20,01,44,4.60
2007,04,20,01,45,4.50
2007,04,20,01,46,4.50
2007,04,20,01,47,4.50
2007,04,20,01,48,4.40
2007,04,20,01,49,4.40
2007,04,20,01,50,4.40
2007,04,20,01,51,4.40
2007,04,20,01,52,4.40
2007,04,20,01,53,4.30
2007,04,20,01,54,4.30
2007,04,20,01,55,4.30
2007,04,20,01,56,4.30
2007,04,20,01,57,4.30
2007,04,20,01,58,4.30
2007,04,20,01,59,4.20
2007,04,20,02,00,4.20
2007,04,20,02,01,4.20
2007,04,20,02,02,4.20
2007,04,20,02,03,4.20
2007,04,20,02,04,4.20
2007,04,20,02,05,4.20
2007,04,20,02,06,4.20
2007,04,20,02,07,4.20
2007,04,20,02,08,4.20
2007,04,20,02,09,4.20
2007,04,20,02,10,4.20
2007,04,20,02,11,4.20
2007,04,20,02,12,4.20
2007,04,20,02,13,4.20
2007,04,20,02,14,4.20
2007,04,20,02,15,4.20
2007,04,20,02,16,4.20
2007,04,20,02,17,4.20
2007,04,20,02,18,4.20
2007,04,20,02,19,4.20
2007,04,20,02,20,4.20
2007,04,20,02,21,4.20
2007,04,20,02,22,4.20
2007,04,20,02,23,4.20
2007,04,20,02,24,4.20
2007,04,20,02,25,4.20
2007,04,20,02,26,4.20
2007,04,20,02,27,4.20
2007,04,20,02,28,4.20
2007,04,20,02,29,4.20
2007,04,20,02,30,4.10
2007,04,20,02,31,4.10
2007,04,20,02,32,4.10
2007,04,20,02,33,4.10
2007,04,20,02,34,4.10
2007,04,20,02,35,4.10
2007,04,20,02,36,4.10
2007,04,20,02,37,4.10
2007,04,20,02,38,4.10
2007,04,20,02,39,4.10
2007,04,20,02,40,4.10
2007,04,20,02,41,4.10
2007,04,20,02,42,4.10
2007,04,20,02,43,4.10
2007,04,20,02,44,4.10
2007,04,20,02,45,4.00
2007,04,20,02,46,4.00
2007,04,20,02,47,4.00
2007,04,20,02,48,4.00
2007,04,20,02,49,4.00
2007,04,20,02,50,4.00
2007,04,20,02,51,4.00
2007,04,20,02,52,4.00
2007,04,20,02,53,4.00
2007,04,20,02,54,3.90
2007,04,20,02,55,3.90
2007,04,20,02,56,3.80
2007,04,20,02,57,3.80
2007,04,20,02,58,3.80
2007,04,20,02,59,3.70
2007,04,20,03,00,3.60
2007,04,20,03,01,3.60
2007,04,20,03,02,3.50
2007,04,20,03,03,3.60
2007,04,20,03,04,3.60
2007,04,20,03,05,3.60
2007,04,20,03,06,3.60
2007,04,20,03,07,3.60
2007,04,20,03,08,3.60
2007,04,20,03,09,3.60
2007,04,20,03,10,3.60
2007,04,20,03,11,3.60
2007,04,20,03,12,3.60
2007,04,20,03,13,3.60
2007,04,20,03,14,3.70
2007,04,20,03,15,3.70
2007,04,20,03,16,3.70
2007,04,20,03,17,3.70
2007,04,20,03,18,3.70
2007,04,20,03,19,3.80
2007,04,20,03,20,3.80
2007,04,20,03,21,3.80
2007,04,20,03,22,3.80
2007,04,20,03,23,3.80
2007,04,20,03,24,3.80
2007,04,20,03,25,3.80
2007,04,20,03,26,3.80
2007,04,20,03,27,3.80
2007,04,20,03,28,3.80
2007,04,20,03,29,3.80
2007,04,20,03,30,3.80
2007,04,20,03,31,3.80
2007,04,20,03,32,3.80
2007,04,20,03,33,3.80
2007,04,20,03,34,3.80
2007,04,20,03,35,3.80
2007,04,20,03,36,3.80
2007,04,20,03,37,3.80
2007,04,20,03,38,3.80
2007,04,20,03,39,3.80
2007,04,20,03,40,3.80
2007,04,20,03,41,3.70
2007,04,20,03,42,3.60
2007,04,20,03,43,3.50
2007,04,20,03,44,3.40
2007,04,20,03,45,3.30
2007,04,20,03,46,3.20
2007,04,20,03,47,3.20
2007,04,20,03,48,3.10
2007,04,20,03,49,3.10
2007,04,20,03,50,3.00
2007,04,20,03,51,2.90
2007,04,20,03,52,2.90
2007,04,20,03,53,2.90
2007,04,20,03,54,2.90
2007,04,20,03,55,2.80
2007,04,20,03,56,2.80
2007,04,20,03,57,2.70
2007,04,20,03,58,2.70
2007,04,20,03,59,2.70
2007,04,20,04,00,2.70
2007,04,20,04,01,2.70
2007,04,20,04,02,2.70
2007,04,20,04,03,2.70
2007,04,20,04,04,2.70
2007,04,20,04,05,2.70
2007,04,20,04,06,2.70
2007,04,20,04,07,2.70
2007,04,20,04,08,2.70
2007,04,20,04,09,2.70
2007,04,20,04,10,2.70
2007,04,20,04,11,2.70
2007,04,20,04,12,2.70
2007,04,20,04,13,2.70
2007,04,20,04,14,2.70
2007,04,20,04,15,2.60
2007,04,20,04,16,2.50
2007,04,20,04,17,2.50
2007,04,20,04,18,2.50
2007,04,20,04,19,2.40
2007,04,20,04,20,2.40
2007,04,20,04,21,2.40
2007,04,20,04,22,2.40
2007,04,20,04,23,2.40
2007,04,20,04,24,2.40
2007,04,20,04,25,2.40
2007,04,20,04,26,2.40
2007,04,20,04,27,2.40
2007,04,20,04,28,2.30
2007,04,20,04,29,2.30
2007,04,20,04,30,2.30
2007,04,20,04,31,2.30
2007,04,20,04,32,2.30
2007,04,20,04,33,2.30
2007,04,20,04,34,2.30
2007,04,20,04,35,2.30
2007,04,20,04,36,2.30
2007,04,20,04,37,2.30
2007,04,20,04,38,2.40
2007,04,20,04,39,2.40
2007,04,20,04,40,2.50
2007,04,20,04,41,2.50
2007,04,20,04,42,2.50
2007,04,20,04,43,2.50
2007,04,20,04,44,2.60
2007,04,20,04,45,2.60
2007,04,20,04,46,2.60
2007,04,20,04,47,2.70
2007,04,20,04,48,2.80
2007,04,20,04,49,2.80
2007,04,20,04,50,2.80
2007,04,20,04,51,2.80
2007,04,20,04,52,2.80
2007,04,20,04,53,2.70
2007,04,20,04,54,2.70
2007,04,20,04,55,2.70
2007,04,20,04,56,2.60
2007,04,20,04,57,2.50
2007,04,20,04,58,2.50
2007,04,20,04,59,2.50
2007,04,20,05,00,2.40
2007,04,20,05,01,2.40
2007,04,20,05,02,2.40
2007,04,20,05,03,2.40
2007,04,20,05,04,2.40
2007,04,20,05,05,2.30
2007,04,20,05,06,2.30
2007,04,20,05,07,2.30
2007,04,20,05,08,2.30
2007,04,20,05,09,2.30
2007,04,20,05,10,2.30
2007,04,20,05,11,2.40
2007,04,20,05,12,2.40
2007,04,20,05,13,2.40
2007,04,20,05,14,2.40
2007,04,20,05,15,2.40
2007,04,20,05,16,2.50
2007,04,20,05,17,2.50
2007,04,20,05,18,2.50
2007,04,20,05,19,2.60
2007,04,20,05,20,2.60
2007,04,20,05,21,2.70
2007,04,20,05,22,2.70
2007,04,20,05,23,2.70
2007,04,20,05,24,2.70
2007,04,20,05,25,2.70
2007,04,20,05,26,2.70
2007,04,20,05,27,2.70
2007,04,20,05,28,2.70
2007,04,20,05,29,2.70
2007,04,20,05,30,2.70
2007,04,20,05,31,2.70
2007,04,20,05,32,2.70
2007,04,20,05,33,2.70
2007,04,20,05,34,2.70
2007,04,20,05,35,2.70
2007,04,20,05,36,2.70
2007,04,20,05,37,2.70
2007,04,20,05,38,2.80
2007,04,20,05,39,2.80
2007,04,20,05,40,2.80
2007,04,20,05,41,2.80
2007,04,20,05,42,2.90
2007,04,20,05,43,2.90
2007,04,20,05,44,2.90
2007,04,20,05,45,2.90
2007,04,20,05,46,2.90
2007,04,20,05,47,2.90
2007,04,20,05,48,2.80
2007,04,20,05,49,2.80
2007,04,20,05,50,2.80
2007,04,20,05,51,2.80
2007,04,20,05,52,2.80
2007,04,20,05,53,2.80
2007,04,20,05,54,2.80
2007,04,20,05,55,2.80
2007,04,20,05,56,2.80
2007,04,20,05,57,2.80
2007,04,20,05,58,2.80
2007,04,20,05,59,2.80
2007,04,20,06,00,2.80
2007,04,20,06,01,2.80
2007,04,20,06,02,2.80
2007,04,20,06,03,2.80
2007,04,20,06,04,2.80
2007,04,20,06,05,2.70
2007,04,20,06,06,2.70
2007,04,20,06,07,2.70
2007,04,20,06,08,2.70
2007,04,20,06,09,2.70
2007,04,20,06,10,2.70
2007,04,20,06,11,2.70
2007,04,20,06,12,2.70
2007,04,20,06,13,2.70
2007,04,20,06,14,2.70
2007,04,20,06,15,2.70
2007,04,20,06,16,2.70
2007,04,20,06,17,2.70
2007,04,20,06,18,2.70
2007,04,20,06,19,2.70
2007,04,20,06,20,2.70
2007,04,20,06,21,2.70
2007,04,20,06,22,2.70
2007,04,20,06,23,2.70
2007,04,20,06,24,2.80
2007,04,20,06,25,2.80
2007,04,20,06,26,2.80
2007,04,20,06,27,2.80
2007,04,20,06,28,2.80
2007,04,20,06,29,2.80
2007,04,20,06,30,2.90
2007,04,20,06,31,2.90
2007,04,20,06,32,2.90
2007,04,20,06,33,2.90
2007,04,20,06,34,2.90
2007,04,20,06,35,2.90
2007,04,20,06,36,2.90
2007,04,20,06,37,2.90
2007,04,20,06,38,2.90
2007,04,20,06,39,2.90
2007,04,20,06,40,2.90
2007,04,20,06,41,2.90
2007,04,20,06,42,2.90
2007,04,20,06,43,2.90
2007,04,20,06,44,2.90
2007,04,20,06,45,2.90
2007,04,20,06,46,2.90
2007,04,20,06,47,2.80
2007,04,20,06,48,2.70
2007,04,20,06,49,2.70
2007,04,20,06,50,2.70
2007,04,20,06,51,2.70
2007,04,20,06,52,2.70
2007,04,20,06,53,2.70
2007,04,20,06,54,2.70
2007,04,20,06,55,2.70
2007,04,20,06,56,2.70
2007,04,20,06,57,2.70
2007,04,20,06,58,2.70
2007,04,20,06,59,2.70
2007,04,20,07,00,2.70
2007,04,20,07,01,2.70
2007,04,20,07,02,2.70
2007,04,20,07,03,2.70
2007,04,20,07,04,2.70
2007,04,20,07,05,2.70
2007,04,20,07,06,2.70
2007,04,20,07,07,2.70
2007,04,20,07,08,2.70
2007,04,20,07,09,2.60
2007,04,20,07,10,2.60
2007,04,20,07,11,2.60
2007,04,20,07,12,2.70
2007,04,20,07,13,2.70
2007,04,20,07,14,2.70
2007,04,20,07,15,2.70
2007,04,20,07,16,2.70
2007,04,20,07,17,2.80
2007,04,20,07,18,2.90
2007,04,20,07,19,3.10
2007,04,20,07,20,3.20
2007,04,20,07,21,3.30
2007,04,20,07,22,3.30
2007,04,20,07,23,3.40
2007,04,20,07,24,3.50
2007,04,20,07,25,3.50
2007,04,20,07,26,3.60
2007,04,20,07,27,3.60
2007,04,20,07,28,3.70
2007,04,20,07,29,3.70
2007,04,20,07,30,3.70
2007,04,20,07,31,3.80
2007,04,20,07,32,3.80
2007,04,20,07,33,3.80
2007,04,20,07,34,3.90
2007,04,20,07,35,3.90
2007,04,20,07,36,4.00
2007,04,20,07,37,4.00
2007,04,20,07,38,4.10
2007,04,20,07,39,4.10
2007,04,20,07,40,4.20
2007,04,20,07,41,4.20
2007,04,20,07,42,4.20
2007,04,20,07,43,4.20
2007,04,20,07,44,4.20
2007,04,20,07,45,4.20
2007,04,20,07,46,4.30
2007,04,20,07,47,4.30
2007,04,20,07,48,4.30
2007,04,20,07,49,4.40
2007,04,20,07,50,4.40
2007,04,20,07,51,4.40
2007,04,20,07,52,4.40
2007,04,20,07,53,4.50
2007,04,20,07,54,4.50
2007,04,20,07,55,4.50
2007,04,20,07,56,4.60
2007,04,20,07,57,4.60
2007,04,20,07,58,4.60
2007,04,20,07,59,4.70
2007,04,20,08,00,4.70
2007,04,20,08,01,4.80
2007,04,20,08,02,4.80
2007,04,20,08,03,4.80
2007,04,20,08,04,4.90
2007,04,20,08,05,4.90
2007,04,20,08,06,5.00
2007,04,20,08,07,5.10
2007,04,20,08,08,5.10
2007,04,20,08,09,5.10
2007,04,20,08,10,5.20
2007,04,20,08,11,5.30
2007,04,20,08,12,5.40
2007,04,20,08,13,5.50
2007,04,20,08,14,5.60
2007,04,20,08,15,5.60
2007,04,20,08,16,5.80
2007,04,20,08,17,5.90
2007,04,20,08,18,6.00
2007,04,20,08,19,6.10
2007,04,20,08,20,6.20
2007,04,20,08,21,6.30
2007,04,20,08,22,6.40
2007,04,20,08,23,6.40
2007,04,20,08,24,6.50
2007,04,20,08,25,6.60
2007,04,20,08,26,6.60
2007,04,20,08,27,6.70
2007,04,20,08,28,6.80
2007,04,20,08,29,6.90
2007,04,20,08,30,7.00
2007,04,20,08,31,7.10
2007,04,20,08,32,7.20
2007,04,20,08,33,7.30
2007,04,20,08,34,7.30
2007,04,20,08,35,7.30
2007,04,20,08,36,7.40
2007,04,20,08,37,7.50
2007,04,20,08,38,7.50
2007,04,20,08,39,7.50
2007,04,20,08,40,7.50
2007,04,20,08,41,7.60
2007,04,20,08,42,7.60
2007,04,20,08,43,7.60
2007,04,20,08,44,7.60
2007,04,20,08,45,7.70
2007,04,20,08,46,7.70
2007,04,20,08,47,7.80
2007,04,20,08,48,7.80
2007,04,20,08,49,7.80
2007,04,20,08,50,7.80
2007,04,20,08,51,7.80
2007,04,20,08,52,7.80
2007,04,20,08,53,7.80
2007,04,20,08,54,7.80
2007,04,20,08,55,7.90
2007,04,20,08,56,7.90
2007,04,20,08,57,8.00
2007,04,20,08,58,8.00
2007,04,20,08,59,8.10
2007,04,20,09,00,8.10
2007,04,20,09,01,8.10
2007,04,20,09,02,8.10
2007,04,20,09,03,8.20
2007,04,20,09,04,8.20
2007,04,20,09,05,8.20
2007,04,20,09,06,8.20
2007,04,20,09,07,8.20
2007,04,20,09,08,8.30
2007,04,20,09,09,8.30
2007,04,20,09,10,8.30
2007,04,20,09,11,8.30
2007,04,20,09,12,8.30
2007,04,20,09,13,8.40
2007,04,20,09,14,8.30
2007,04,20,09,15,8.30
2007,04,20,09,16,8.30
2007,04,20,09,17,8.30
2007,04,20,09,18,8.40
2007,04,20,09,19,8.40
2007,04,20,09,20,8.40
2007,04,20,09,21,8.40
2007,04,20,09,22,8.50
2007,04,20,09,23,8.50
2007,04,20,09,24,8.50
2007,04,20,09,25,8.50
2007,04,20,09,26,8.50
2007,04,20,09,27,8.50
2007,04,20,09,28,8.60
2007,04,20,09,29,8.70
2007,04,20,09,30,8.70
2007,04,20,09,31,8.70
2007,04,20,09,32,8.70
2007,04,20,09,33,8.70
2007,04,20,09,34,8.70
2007,04,20,09,35,8.70
2007,04,20,09,36,8.70
2007,04,20,09,37,8.70
2007,04,20,09,38,8.70
2007,04,20,09,39,8.70
2007,04,20,09,40,8.70
2007,04,20,09,41,8.70
2007,04,20,09,42,8.70
2007,04,20,09,43,8.70
2007,04,20,09,44,8.70
2007,04,20,09,45,8.80
2007,04,20,09,46,8.90
2007,04,20,09,47,8.90
2007,04,20,09,48,8.90
2007,04,20,09,49,8.90
2007,04,20,09,50,8.90
2007,04,20,09,51,8.90
2007,04,20,09,52,8.80
2007,04,20,09,53,8.80
2007,04,20,09,54,8.80
2007,04,20,09,55,8.90
2007,04,20,09,56,8.90
2007,04,20,09,57,8.90
2007,04,20,09,58,8.90
2007,04,20,09,59,9.00
2007,04,20,10,00,9.00
2007,04,20,10,01,9.00
2007,04,20,10,02,9.00
2007,04,20,10,03,9.10
2007,04,20,10,04,9.10
2007,04,20,10,05,9.10
2007,04,20,10,06,9.10
2007,04,20,10,07,9.00
2007,04,20,10,08,9.00
2007,04,20,10,09,9.00
2007,04,20,10,10,9.00
2007,04,20,10,11,9.00
2007,04,20,10,12,9.00
2007,04,20,10,13,9.10
2007,04,20,10,14,9.10
2007,04,20,10,15,9.10
2007,04,20,10,16,9.20
2007,04,20,10,17,9.20
2007,04,20,10,18,9.30
2007,04,20,10,19,9.30
2007,04,20,10,20,9.40
2007,04,20,10,21,9.40
2007,04,20,10,22,9.50
2007,04,20,10,23,9.50
2007,04,20,10,24,9.50
2007,04,20,10,25,9.50
2007,04,20,10,26,9.50
2007,04,20,10,27,9.50
2007,04,20,10,28,9.50
2007,04,20,10,29,9.70
2007,04,20,10,30,9.70
2007,04,20,10,31,9.70
2007,04,20,10,32,9.70
2007,04,20,10,33,9.70
2007,04,20,10,34,9.70
2007,04,20,10,35,9.60
2007,04,20,10,36,9.60
2007,04,20,10,37,9.60
2007,04,20,10,38,9.70
2007,04,20,10,39,9.70
2007,04,20,10,40,9.70
2007,04,20,10,41,9.70
2007,04,20,10,42,9.60
2007,04,20,10,43,9.50
2007,04,20,10,44,9.50
2007,04,20,10,45,9.40
2007,04,20,10,46,9.40
2007,04,20,10,47,9.40
2007,04,20,10,48,9.50
2007,04,20,10,49,9.60
2007,04,20,10,50,9.70
2007,04,20,10,51,9.70
2007,04,20,10,52,9.70
2007,04,20,10,53,9.70
2007,04,20,10,54,9.70
2007,04,20,10,55,9.70
2007,04,20,10,56,9.80
2007,04,20,10,57,9.80
2007,04,20,10,58,9.80
2007,04,20,10,59,9.90
2007,04,20,11,00,9.90
2007,04,20,11,01,9.90
2007,04,20,11,02,9.90
2007,04,20,11,03,9.90
2007,04,20,11,04,10.00
2007,04,20,11,05,10.10
2007,04,20,11,06,10.10
2007,04,20,11,07,10.20
2007,04,20,11,08,10.20
2007,04,20,11,09,10.30
2007,04,20,11,10,10.30
2007,04,20,11,11,10.40
2007,04,20,11,12,10.50
2007,04,20,11,13,10.60
2007,04,20,11,14,10.70
2007,04,20,11,15,10.80
2007,04,20,11,16,10.80
2007,04,20,11,17,10.80
2007,04,20,11,18,11.00
2007,04,20,11,19,11.10
2007,04,20,11,20,11.10
2007,04,20,11,21,11.10
2007,04,20,11,22,11.20
2007,04,20,11,23,11.20
2007,04,20,11,24,11.30
2007,04,20,11,25,11.40
2007,04,20,11,26,11.40
2007,04,20,11,27,11.40
2007,04,20,11,28,11.40
2007,04,20,11,29,11.40
2007,04,20,11,30,11.40
2007,04,20,11,31,11.40
2007,04,20,11,32,11.30
2007,04,20,11,33,11.30
2007,04,20,11,34,11.40
2007,04,20,11,35,11.40
2007,04,20,11,36,11.50
2007,04,20,11,37,11.60
2007,04,20,11,38,11.60
2007,04,20,11,39,11.60
2007,04,20,11,40,11.60
2007,04,20,11,41,11.50
2007,04,20,11,42,11.40
2007,04,20,11,43,11.30
2007,04,20,11,44,11.30
2007,04,20,11,45,11.30
2007,04,20,11,46,11.30
2007,04,20,11,47,11.20
2007,04,20,11,48,11.20
2007,04,20,11,49,11.10
2007,04,20,11,50,11.10
2007,04,20,11,51,11.10
2007,04,20,11,52,11.10
2007,04,20,11,53,11.10
2007,04,20,11,54,11.00
2007,04,20,11,55,10.90
2007,04,20,11,56,10.90
2007,04,20,11,57,10.90
2007,04,20,11,58,10.90
2007,04,20,11,59,11.00
2007,04,20,12,00,11.10
2007,04,20,12,01,11.10
2007,04,20,12,02,11.20
2007,04,20,12,03,11.20
2007,04,20,12,04,11.20
2007,04,20,12,05,11.20
2007,04,20,12,06,11.30
2007,04,20,12,07,11.30
2007,04,20,12,08,11.30
2007,04,20,12,09,11.30
2007,04,20,12,10,11.40
2007,04,20,12,11,11.40
2007,04,20,12,12,11.50
2007,04,20,12,13,11.60
2007,04,20,12,14,11.60
2007,04,20,12,15,11.60
2007,04,20,12,16,11.60
2007,04,20,12,17,11.70
2007,04,20,12,18,11.80
2007,04,20,12,19,11.90
2007,04,20,12,20,12.00
2007,04,20,12,21,12.00
2007,04,20,12,22,12.00
2007,04,20,12,23,12.10
2007,04,20,12,24,12.10
2007,04,20,12,25,12.10
2007,04,20,12,26,12.20
2007,04,20,12,27,12.30
2007,04,20,12,28,12.20
2007,04,20,12,29,12.10
2007,04,20,12,30,12.20
2007,04,20,12,31,12.20
2007,04,20,12,32,12.10
2007,04,20,12,33,12.20
2007,04,20,12,34,12.30
2007,04,20,12,35,12.30
2007,04,20,12,36,12.30
2007,04,20,12,37,12.30
2007,04,20,12,38,12.30
2007,04,20,12,39,12.30
2007,04,20,12,40,12.30
2007,04,20,12,41,12.40
2007,04,20,12,42,12.40
2007,04,20,12,43,12.30
2007,04,20,12,44,12.30
2007,04,20,12,45,12.30
2007,04,20,12,46,12.30
2007,04,20,12,47,12.30
2007,04,20,12,48,12.50
2007,04,20,12,49,12.60
2007,04,20,12,50,12.60
2007,04,20,12,51,12.50
2007,04,20,12,52,12.60
2007,04,20,12,53,12.60
2007,04,20,12,54,12.60
2007,04,20,12,55,12.70
2007,04,20,12,56,12.70
2007,04,20,12,57,12.80
2007,04,20,12,58,12.80
2007,04,20,12,59,12.90
2007,04,20,13,00,12.90
2007,04,20,13,01,12.90
2007,04,20,13,02,12.80
2007,04,20,13,03,12.80
2007,04,20,13,04,12.80
2007,04,20,13,05,12.80
2007,04,20,13,06,12.80
2007,04,20,13,07,12.70
2007,04,20,13,08,12.60
2007,04,20,13,09,12.50
2007,04,20,13,10,12.50
2007,04,20,13,11,12.50
2007,04,20,13,12,12.50
2007,04,20,13,13,12.60
2007,04,20,13,14,12.60
2007,04,20,13,15,12.50
2007,04,20,13,16,12.50
2007,04,20,13,17,12.40
2007,04,20,13,18,12.50
2007,04,20,13,19,12.60
2007,04,20,13,20,12.70
2007,04,20,13,21,12.80
2007,04,20,13,22,13.00
2007,04,20,13,23,13.00
2007,04,20,13,24,12.90
2007,04,20,13,25,12.80
2007,04,20,13,26,12.80
2007,04,20,13,27,12.80
2007,04,20,13,28,12.80
2007,04,20,13,29,12.80
2007,04,20,13,30,12.90
2007,04,20,13,31,12.80
2007,04,20,13,32,12.70
2007,04,20,13,33,12.60
2007,04,20,13,34,12.50
2007,04,20,13,35,12.40
2007,04,20,13,36,12.40
2007,04,20,13,37,12.50
2007,04,20,13,38,12.60
2007,04,20,13,39,12.50
2007,04,20,13,40,12.30
2007,04,20,13,41,12.30
2007,04,20,13,42,12.40
2007,04,20,13,43,12.50
2007,04,20,13,44,12.70
2007,04,20,13,45,12.80
2007,04,20,13,46,12.80
2007,04,20,13,47,12.90
2007,04,20,13,48,13.00
2007,04,20,13,49,13.10
2007,04,20,13,50,13.10
2007,04,20,13,51,13.20
2007,04,20,13,52,13.20
2007,04,20,13,53,13.20
2007,04,20,13,54,13.10
2007,04,20,13,55,13.10
2007,04,20,13,56,13.00
2007,04,20,13,57,13.00
2007,04,20,13,58,13.00
2007,04,20,13,59,13.00
2007,04,20,14,00,13.10
2007,04,20,14,01,13.20
2007,04,20,14,02,13.40
2007,04,20,14,03,13.40
2007,04,20,14,04,13.40
2007,04,20,14,05,13.40
2007,04,20,14,06,13.40
2007,04,20,14,07,13.40
2007,04,20,14,08,13.30
2007,04,20,14,09,13.20
2007,04,20,14,10,13.20
2007,04,20,14,11,13.10
2007,04,20,14,12,13.10
2007,04,20,14,13,12.90
2007,04,20,14,14,12.80
2007,04,20,14,15,12.80
2007,04,20,14,16,12.80
2007,04,20,14,17,12.80
2007,04,20,14,18,12.90
2007,04,20,14,19,12.90
2007,04,20,14,20,12.90
2007,04,20,14,21,12.90
2007,04,20,14,22,13.00
2007,04,20,14,23,13.10
2007,04,20,14,24,13.10
2007,04,20,14,25,13.10
2007,04,20,14,26,13.10
2007,04,20,14,27,13.00
2007,04,20,14,28,12.80
2007,04,20,14,29,12.80
2007,04,20,14,30,12.70
2007,04,20,14,31,12.70
2007,04,20,14,32,12.70
2007,04,20,14,33,12.60
2007,04,20,14,34,12.60
2007,04,20,14,35,12.60
2007,04,20,14,36,12.60
2007,04,20,14,37,12.50
2007,04,20,14,38,12.40
2007,04,20,14,39,12.30
2007,04,20,14,40,12.20
2007,04,20,14,41,12.20
2007,04,20,14,42,12.30
2007,04,20,14,43,12.30
2007,04,20,14,44,12.50
2007,04,20,14,45,12.50
2007,04,20,14,46,12.40
2007,04,20,14,47,12.30
2007,04,20,14,48,12.30
2007,04,20,14,49,12.30
2007,04,20,14,50,12.30
2007,04,20,14,51,12.20
2007,04,20,14,52,12.20
2007,04,20,14,53,12.20
2007,04,20,14,54,12.30
2007,04,20,14,55,12.30
2007,04,20,14,56,12.30
2007,04,20,14,57,12.30
2007,04,20,14,58,12.30
2007,04,20,14,59,12.30
2007,04,20,15,00,12.30
2007,04,20,15,01,12.30
2007,04,20,15,02,12.40
2007,04,20,15,03,12.40
2007,04,20,15,04,12.40
2007,04,20,15,05,12.50
2007,04,20,15,06,12.60
2007,04,20,15,07,12.70
2007,04,20,15,08,12.60
2007,04,20,15,09,12.60
2007,04,20,15,10,12.60
2007,04,20,15,11,12.60
2007,04,20,15,12,12.70
2007,04,20,15,13,12.80
2007,04,20,15,14,12.80
2007,04,20,15,15,12.80
2007,04,20,15,16,12.80
2007,04,20,15,17,12.90
2007,04,20,15,18,13.00
2007,04,20,15,19,13.00
2007,04,20,15,20,12.90
2007,04,20,15,21,12.90
2007,04,20,15,22,12.90
2007,04,20,15,23,12.90
2007,04,20,15,24,12.90
2007,04,20,15,25,12.80
2007,04,20,15,26,13.00
2007,04,20,15,27,13.00
2007,04,20,15,28,13.00
2007,04,20,15,29,13.00
2007,04,20,15,30,13.00
2007,04,20,15,31,13.00
2007,04,20,15,32,12.90
2007,04,20,15,33,12.80
2007,04,20,15,34,12.80
2007,04,20,15,35,12.80
2007,04,20,15,36,12.70
2007,04,20,15,37,12.70
2007,04,20,15,38,12.60
2007,04,20,15,39,12.60
2007,04,20,15,40,12.60
2007,04,20,15,41,12.40
2007,04,20,15,42,12.40
2007,04,20,15,43,12.40
2007,04,20,15,44,12.40
2007,04,20,15,45,12.40
2007,04,20,15,46,12.30
2007,04,20,15,47,12.30
2007,04,20,15,48,12.20
2007,04,20,15,49,12.10
2007,04,20,15,50,12.10
2007,04,20,15,51,12.10
2007,04,20,15,52,12.20
2007,04,20,15,53,12.20
2007,04,20,15,54,12.30
2007,04,20,15,55,12.30
2007,04,20,15,56,12.20
2007,04,20,15,57,12.00
2007,04,20,15,58,11.90
2007,04,20,15,59,11.70
2007,04,20,16,00,11.60
2007,04,20,16,01,11.50
2007,04,20,16,02,11.40
2007,04,20,16,03,11.40
2007,04,20,16,04,11.40
2007,04,20,16,05,11.40
2007,04,20,16,06,11.40
2007,04,20,16,07,11.30
2007,04,20,16,08,11.30
2007,04,20,16,09,11.30
2007,04,20,16,10,11.40
2007,04,20,16,11,11.40
2007,04,20,16,12,11.40
2007,04,20,16,13,11.40
2007,04,20,16,14,11.30
2007,04,20,16,15,11.30
2007,04,20,16,16,11.40
2007,04,20,16,17,11.40
2007,04,20,16,18,11.40
2007,04,20,16,19,11.40
2007,04,20,16,20,11.40
2007,04,20,16,21,11.40
2007,04,20,16,22,11.30
2007,04,20,16,23,11.30
2007,04,20,16,24,11.30
2007,04,20,16,25,11.40
2007,04,20,16,26,11.40
2007,04,20,16,27,11.40
2007,04,20,16,28,11.40
2007,04,20,16,29,11.50
2007,04,20,16,30,11.60
2007,04,20,16,31,11.60
2007,04,20,16,32,11.60
2007,04,20,16,33,11.60
2007,04,20,16,34,11.60
2007,04,20,16,35,11.60
2007,04,20,16,36,11.50
2007,04,20,16,37,11.40
2007,04,20,16,38,11.40
2007,04,20,16,39,11.40
2007,04,20,16,40,11.40
2007,04,20,16,41,11.40
2007,04,20,16,42,11.40
2007,04,20,16,43,11.40
2007,04,20,16,44,11.40
2007,04,20,16,45,11.40
2007,04,20,16,46,11.40
2007,04,20,16,47,11.40
2007,04,20,16,48,11.40
2007,04,20,16,49,11.60
2007,04,20,16,50,11.60
2007,04,20,16,51,11.60
2007,04,20,16,52,11.60
2007,04,20,16,53,11.70
2007,04,20,16,54,11.80
2007,04,20,16,55,11.70
2007,04,20,16,56,11.70
2007,04,20,16,57,11.70
2007,04,20,16,58,11.70
2007,04,20,16,59,11.70
2007,04,20,17,00,11.80
2007,04,20,17,01,11.70
2007,04,20,17,02,11.60
2007,04,20,17,03,11.60
2007,04,20,17,04,11.50
2007,04,20,17,05,11.40
2007,04,20,17,06,11.40
2007,04,20,17,07,11.30
2007,04,20,17,08,11.30
2007,04,20,17,09,11.30
2007,04,20,17,10,11.30
2007,04,20,17,11,11.20
2007,04,20,17,12,11.20
2007,04,20,17,13,11.20
2007,04,20,17,14,11.30
2007,04,20,17,15,11.40
2007,04,20,17,16,11.50
2007,04,20,17,17,11.60
2007,04,20,17,18,11.60
2007,04,20,17,19,11.60
2007,04,20,17,20,11.60
2007,04,20,17,21,11.70
2007,04,20,17,22,11.70
2007,04,20,17,23,11.70
2007,04,20,17,24,11.70
2007,04,20,17,25,11.70
2007,04,20,17,26,11.70
2007,04,20,17,27,11.60
2007,04,20,17,28,11.60
2007,04,20,17,29,11.60
2007,04,20,17,30,11.60
2007,04,20,17,31,11.60
2007,04,20,17,32,11.60
2007,04,20,17,33,11.60
2007,04,20,17,34,11.70
2007,04,20,17,35,11.70
2007,04,20,17,36,11.80
2007,04,20,17,37,11.90
2007,04,20,17,38,11.90
2007,04,20,17,39,12.00
2007,04,20,17,40,12.00
2007,04,20,17,41,12.00
2007,04,20,17,42,12.00
2007,04,20,17,43,12.00
2007,04,20,17,44,12.00
2007,04,20,17,45,11.90
2007,04,20,17,46,11.80
2007,04,20,17,47,11.80
2007,04,20,17,48,11.80